| time (UTC) | temp F | wind direction | speed MPH | gust MPH | rain 1hr in | rain 24hr in | rain mn in | humidity % | barometer mb |
| 20260906083624 | 66 | 237 | 0.0 | 3.0 | 0.00 | 0.00 | 0.00 | 84 | 1026.1 |
| 20260906083416 | 66 | 290 | 0.0 | 3.0 | 0.00 | 0.00 | 0.00 | 84 | 1026.2 |
| 20260906082859 | 67 | 279 | 0.0 | 3.0 | 0.00 | 0.00 | 0.00 | 82 | 1026.1 |
| 20260906082343 | 67 | 307 | 0.0 | 1.0 | 0.00 | 0.00 | 0.00 | 83 | 1026.1 |
| 20260906081819 | 66 | 39 | 0.0 | 1.0 | 0.00 | 0.00 | 0.00 | 84 | 1025.9 |
| 20260906081615 | 66 | 263 | 0.0 | 0.0 | 0.00 | 0.00 | 0.00 | 84 | 1025.9 |
| 20260906081409 | 66 | 269 | 0.0 | 0.0 | 0.00 | 0.00 | 0.00 | 85 | 1025.9 |
| 20260906081159 | 65 | 269 | 0.0 | 0.0 | 0.00 | 0.00 | 0.00 | 85 | 1025.9 |
| 20260906080324 | 66 | 287 | 0.0 | 2.0 | 0.00 | 0.00 | 0.00 | 82 | 1025.9 |
| 20260906080114 | 66 | 60 | 0.0 | 2.0 | 0.00 | 0.00 | 0.00 | 83 | 1025.9 |
| 20260906075912 | 66 | 7 | 0.0 | 2.0 | 0.00 | 0.00 | 0.00 | 84 | 1025.9 |
| 20260906075706 | 65 | 18 | 0.0 | 2.0 | 0.00 | 0.00 | 0.00 | 85 | 1025.9 |
| 20260906075505 | 65 | 8 | 0.0 | 2.0 | 0.00 | 0.00 | 0.00 | 85 | 1025.9 |
| 20260906075255 | 65 | 46 | 0.0 | 2.0 | 0.00 | 0.00 | 0.00 | 84 | 1025.9 |
| 20260906075054 | 65 | 75 | 0.0 | 1.0 | 0.00 | 0.00 | 0.00 | 85 | 1025.9 |
| 20260906074202 | 65 | 287 | 0.0 | 0.0 | 0.00 | 0.00 | 0.00 | 83 | 1025.9 |
| 20260906073959 | 65 | 287 | 0.0 | 2.0 | 0.00 | 0.00 | 0.00 | 83 | 1025.9 |
| 20260906073750 | 65 | 287 | 0.0 | 2.0 | 0.00 | 0.00 | 0.00 | 81 | 1025.9 |
| 20260906073547 | 66 | 286 | 0.0 | 2.0 | 0.00 | 0.00 | 0.00 | 81 | 1025.9 |
| 20260906073341 | 66 | 281 | 0.0 | 1.0 | 0.00 | 0.00 | 0.00 | 82 | 1025.9 |
| 20260906073141 | 66 | 101 | 0.0 | 0.0 | 0.00 | 0.00 | 0.00 | 83 | 1026.0 |
| 20260906072936 | 66 | 103 | 0.0 | 0.0 | 0.00 | 0.00 | 0.00 | 82 | 1025.9 |
| 20260906072735 | 65 | 42 | 0.0 | 2.0 | 0.00 | 0.00 | 0.00 | 82 | 1025.9 |
| 20260906072527 | 65 | 240 | 0.0 | 0.0 | 0.00 | 0.00 | 0.00 | 82 | 1025.9 |
| 20260906071651 | 65 | 44 | 0.0 | 3.0 | 0.00 | 0.00 | 0.00 | 82 | 1025.9 |
| 20260906071134 | 65 | 41 | 0.0 | 3.0 | 0.00 | 0.00 | 0.00 | 81 | 1025.8 |
| 20260906070931 | 64 | 78 | 0.0 | 3.0 | 0.00 | 0.00 | 0.00 | 82 | 1025.9 |
| 20260906070038 | 64 | 110 | 1.0 | 3.0 | 0.00 | 0.00 | 0.00 | 84 | 1025.8 |
| 20260906065519 | 63 | 114 | 0.0 | 2.0 | 0.00 | 0.00 | 0.00 | 82 | 1025.8 |
| 20260906065315 | 64 | 115 | 0.0 | 2.0 | 0.00 | 0.00 | 0.00 | 83 | 1025.8 |
| 20260906065106 | 63 | 110 | 0.0 | 2.0 | 0.00 | 0.00 | 0.00 | 84 | 1025.8 |
| 20260906064856 | 63 | 102 | 0.0 | 2.0 | 0.00 | 0.00 | 0.00 | 84 | 1025.9 |
| 20260906064326 | 63 | 71 | 0.0 | 2.0 | 0.00 | 0.00 | 0.00 | 83 | 1025.8 |
| 20260906064120 | 63 | 75 | 0.0 | 2.0 | 0.00 | 0.00 | 0.00 | 84 | 1025.7 |
| 20260906063910 | 63 | 74 | 0.0 | 2.0 | 0.00 | 0.00 | 0.00 | 84 | 1025.8 |
| 20260906063706 | 63 | 84 | 0.0 | 2.0 | 0.00 | 0.00 | 0.00 | 84 | 1025.8 |
| 20260906063500 | 63 | 70 | 0.0 | 2.0 | 0.00 | 0.00 | 0.00 | 84 | 1025.8 |
| 20260906062932 | 63 | 64 | 0.0 | 1.0 | 0.00 | 0.00 | 0.00 | 83 | 1025.8 |
| 20260906062403 | 63 | 98 | 0.0 | 0.0 | 0.00 | 0.00 | 0.00 | 84 | 1025.8 |
| 20260906061849 | 62 | 117 | 0.0 | 2.0 | 0.00 | 0.00 | 0.00 | 85 | 1025.8 |
| 20260906061647 | 62 | 114 | 0.0 | 3.0 | 0.00 | 0.00 | 0.00 | 86 | 1025.8 |
| 20260906061441 | 62 | 118 | 0.0 | 3.0 | 0.00 | 0.00 | 0.00 | 86 | 1025.7 |
| 20260906061240 | 61 | 113 | 0.0 | 3.0 | 0.00 | 0.00 | 0.00 | 86 | 1025.8 |
| 20260906061030 | 61 | 114 | 1.0 | 3.0 | 0.00 | 0.00 | 0.00 | 86 | 1025.8 |
| 20260906060823 | 61 | 118 | 1.0 | 3.0 | 0.00 | 0.00 | 0.00 | 86 | 1025.8 |
| 20260906060620 | 61 | 110 | 1.0 | 3.0 | 0.00 | 0.00 | 0.00 | 87 | 1025.8 |
| 20260906060421 | 61 | 114 | 1.0 | 3.0 | 0.00 | 0.00 | 0.00 | 87 | 1025.7 |
| 20260906055858 | 61 | 141 | 1.0 | 3.0 | 0.00 | 0.00 | 0.00 | 87 | 1025.7 |
| 20260906055659 | 61 | 125 | 1.0 | 2.0 | 0.00 | 0.00 | 0.00 | 87 | 1025.7 |
| 20260906054806 | 60 | 101 | 0.0 | 3.0 | 0.00 | 0.00 | 0.00 | 87 | 1025.6 |
| 20260906054603 | 60 | 125 | 0.0 | 3.0 | 0.00 | 0.00 | 0.00 | 87 | 1025.6 |
| 20260906054356 | 60 | 115 | 0.0 | 3.0 | 0.00 | 0.00 | 0.00 | 88 | 1025.6 |
| 20260906054153 | 60 | 109 | 1.0 | 4.0 | 0.00 | 0.00 | 0.00 | 88 | 1025.6 |
| 20260906053951 | 60 | 93 | 1.0 | 4.0 | 0.00 | 0.00 | 0.00 | 88 | 1025.6 |
| 20260906053749 | 60 | 91 | 2.0 | 4.0 | 0.00 | 0.00 | 0.00 | 88 | 1025.6 |
| 20260906053550 | 60 | 110 | 2.0 | 4.0 | 0.00 | 0.00 | 0.00 | 89 | 1025.5 |
| 20260906053350 | 59 | 104 | 2.0 | 4.0 | 0.00 | 0.00 | 0.00 | 89 | 1025.6 |
| 20260906052821 | 59 | 117 | 1.0 | 4.0 | 0.00 | 0.00 | 0.00 | 89 | 1025.5 |
| 20260906052614 | 59 | 117 | 1.0 | 4.0 | 0.00 | 0.00 | 0.00 | 89 | 1025.5 |
| 20260906052411 | 59 | 125 | 1.0 | 4.0 | 0.00 | 0.00 | 0.00 | 89 | 1025.4 |
| 20260906051843 | 59 | 101 | 0.0 | 3.0 | 0.00 | 0.00 | 0.00 | 90 | 1025.4 |
| 20260906051640 | 58 | 115 | 0.0 | 1.0 | 0.00 | 0.00 | 0.00 | 90 | 1025.4 |
| 20260906051439 | 58 | 110 | 0.0 | 1.0 | 0.00 | 0.00 | 0.00 | 90 | 1025.4 |
| 20260906051236 | 58 | 108 | 0.0 | 1.0 | 0.00 | 0.00 | 0.00 | 90 | 1025.3 |
| 20260906051031 | 58 | 110 | 0.0 | 1.0 | 0.00 | 0.00 | 0.00 | 90 | 1025.4 |
| 20260906050826 | 58 | 102 | 0.0 | 2.0 | 0.00 | 0.00 | 0.00 | 90 | 1025.3 |
| 20260906050621 | 58 | 117 | 0.0 | 2.0 | 0.00 | 0.00 | 0.00 | 90 | 1025.4 |
| 20260906050411 | 58 | 120 | 0.0 | 2.0 | 0.00 | 0.00 | 0.00 | 90 | 1025.4 |
| 20260906045848 | 58 | 97 | 0.0 | 3.0 | 0.00 | 0.00 | 0.00 | 90 | 1025.4 |
| 20260906045324 | 58 | 96 | 0.0 | 3.0 | 0.00 | 0.00 | 0.00 | 90 | 1025.4 |
| 20260906045118 | 58 | 82 | 0.0 | 3.0 | 0.00 | 0.00 | 0.00 | 90 | 1025.3 |
| 20260906044911 | 58 | 97 | 0.0 | 3.0 | 0.00 | 0.00 | 0.00 | 90 | 1025.3 |
| 20260906044708 | 58 | 115 | 0.0 | 3.0 | 0.00 | 0.00 | 0.00 | 90 | 1025.3 |
| 20260906043511 | 59 | 101 | 0.0 | 2.0 | 0.00 | 0.00 | 0.00 | 89 | 1025.2 |
| 20260906042945 | 59 | 103 | 0.0 | 2.0 | 0.00 | 0.00 | 0.00 | 90 | 1025.2 |
| 20260906042738 | 59 | 72 | 0.0 | 2.0 | 0.00 | 0.00 | 0.00 | 90 | 1025.3 |
| 20260906042531 | 59 | 94 | 0.0 | 1.0 | 0.00 | 0.00 | 0.00 | 90 | 1025.3 |
| 20260906042324 | 59 | 96 | 0.0 | 0.0 | 0.00 | 0.00 | 0.00 | 90 | 1025.3 |
| 20260906042120 | 59 | 101 | 0.0 | 1.0 | 0.00 | 0.00 | 0.00 | 90 | 1025.2 |
| 20260906041917 | 59 | 101 | 0.0 | 1.0 | 0.00 | 0.00 | 0.00 | 90 | 1025.2 |
| 20260906041348 | 59 | 113 | 0.0 | 0.0 | 0.00 | 0.00 | 0.00 | 91 | 1025.3 |
| 20260906041146 | 59 | 113 | 0.0 | 0.0 | 0.00 | 0.00 | 0.00 | 91 | 1025.3 |
| 20260906040941 | 59 | 112 | 0.0 | 0.0 | 0.00 | 0.00 | 0.00 | 91 | 1025.3 |
| 20260906040733 | 59 | 112 | 0.0 | 0.0 | 0.00 | 0.00 | 0.00 | 91 | 1025.3 |
| 20260906040208 | 59 | 112 | 0.0 | 0.0 | 0.00 | 0.00 | 0.00 | 91 | 1025.3 |
| 20260906040008 | 58 | 112 | 0.0 | 0.0 | 0.00 | 0.00 | 0.00 | 91 | 1025.4 |
| 20260906035758 | 58 | 113 | 0.0 | 0.0 | 0.00 | 0.00 | 0.00 | 91 | 1025.3 |
| 20260906035554 | 58 | 111 | 0.0 | 0.0 | 0.00 | 0.00 | 0.00 | 91 | 1025.3 |
| 20260906035350 | 58 | 108 | 0.0 | 2.0 | 0.00 | 0.00 | 0.00 | 91 | 1025.3 |
| 20260906035139 | 58 | 108 | 0.0 | 2.0 | 0.00 | 0.00 | 0.00 | 91 | 1025.3 |
| 20260906034612 | 58 | 116 | 0.0 | 2.0 | 0.00 | 0.00 | 0.00 | 90 | 1025.3 |
| 20260906034402 | 58 | 104 | 0.0 | 2.0 | 0.00 | 0.00 | 0.00 | 91 | 1025.3 |
| 20260906034154 | 58 | 98 | 0.0 | 2.0 | 0.00 | 0.00 | 0.00 | 91 | 1025.4 |
| 20260906033635 | 58 | 96 | 0.0 | 2.0 | 0.00 | 0.00 | 0.00 | 90 | 1025.3 |
| 20260906033425 | 58 | 104 | 0.0 | 2.0 | 0.00 | 0.00 | 0.00 | 90 | 1025.3 |
| 20260906033215 | 58 | 96 | 1.0 | 5.0 | 0.00 | 0.00 | 0.00 | 90 | 1025.2 |
| 20260906032336 | 59 | 103 | 1.0 | 5.0 | 0.00 | 0.00 | 0.00 | 90 | 1025.2 |
| 20260906032137 | 59 | 65 | 1.0 | 5.0 | 0.00 | 0.00 | 0.00 | 90 | 1025.2 |
| 20260906031929 | 59 | 108 | 1.0 | 5.0 | 0.00 | 0.00 | 0.00 | 90 | 1025.2 |
| 20260906031729 | 59 | 115 | 1.0 | 5.0 | 0.00 | 0.00 | 0.00 | 89 | 1025.1 |
| 20260906030840 | 59 | 65 | 1.0 | 3.0 | 0.00 | 0.00 | 0.00 | 89 | 1025.3 |
| 20260906030638 | 59 | 104 | 1.0 | 3.0 | 0.00 | 0.00 | 0.00 | 89 | 1025.3 |
| 20260906030428 | 59 | 79 | 1.0 | 3.0 | 0.00 | 0.00 | 0.00 | 89 | 1025.3 |
| 20260906025908 | 59 | 93 | 0.0 | 3.0 | 0.00 | 0.00 | 0.00 | 89 | 1025.4 |
| 20260906025658 | 59 | 90 | 0.0 | 3.0 | 0.00 | 0.00 | 0.00 | 90 | 1025.3 |
| 20260906025452 | 59 | 94 | 0.0 | 3.0 | 0.00 | 0.00 | 0.00 | 90 | 1025.3 |
| 20260906025253 | 59 | 94 | 0.0 | 1.0 | 0.00 | 0.00 | 0.00 | 91 | 1025.4 |
| 20260906025049 | 59 | 108 | 0.0 | 1.0 | 0.00 | 0.00 | 0.00 | 91 | 1025.4 |
| 20260906024159 | 58 | 112 | 0.0 | 1.0 | 0.00 | 0.00 | 0.00 | 91 | 1025.4 |
| 20260906023959 | 58 | 105 | 0.0 | 1.0 | 0.00 | 0.00 | 0.00 | 90 | 1025.4 |
| 20260906023752 | 59 | 120 | 0.0 | 1.0 | 0.00 | 0.00 | 0.00 | 90 | 1025.3 |
| 20260906023551 | 59 | 109 | 0.0 | 2.0 | 0.00 | 0.00 | 0.00 | 90 | 1025.4 |
| 20260906023349 | 59 | 108 | 0.0 | 2.0 | 0.00 | 0.00 | 0.00 | 90 | 1025.5 |
| 20260906023140 | 59 | 105 | 0.0 | 2.0 | 0.00 | 0.00 | 0.00 | 90 | 1025.4 |
| 20260906022931 | 59 | 88 | 0.0 | 2.0 | 0.00 | 0.00 | 0.00 | 90 | 1025.4 |
| 20260906022725 | 59 | 111 | 0.0 | 2.0 | 0.00 | 0.00 | 0.00 | 89 | 1025.4 |
| 20260906022524 | 59 | 103 | 0.0 | 2.0 | 0.00 | 0.00 | 0.00 | 89 | 1025.6 |
| 20260906022324 | 59 | 106 | 0.0 | 2.0 | 0.00 | 0.00 | 0.00 | 90 | 1025.5 |
| 20260906022125 | 59 | 101 | 0.0 | 2.0 | 0.00 | 0.00 | 0.00 | 90 | 1025.6 |
| 20260906021923 | 59 | 92 | 0.0 | 2.0 | 0.00 | 0.00 | 0.00 | 90 | 1025.5 |
| 20260906021716 | 59 | 97 | 0.0 | 1.0 | 0.00 | 0.00 | 0.00 | 90 | 1025.6 |
| 20260906021508 | 59 | 112 | 0.0 | 1.0 | 0.00 | 0.00 | 0.00 | 90 | 1025.6 |
| 20260906021259 | 59 | 108 | 0.0 | 1.0 | 0.00 | 0.00 | 0.00 | 89 | 1025.6 |
| 20260906021053 | 59 | 106 | 0.0 | 1.0 | 0.00 | 0.00 | 0.00 | 89 | 1025.6 |
| 20260906020845 | 59 | 102 | 0.0 | 1.0 | 0.00 | 0.00 | 0.00 | 89 | 1025.5 |
| 20260906020641 | 59 | 96 | 0.0 | 1.0 | 0.00 | 0.00 | 0.00 | 89 | 1025.6 |
| 20260906020438 | 59 | 96 | 0.0 | 1.0 | 0.00 | 0.00 | 0.00 | 89 | 1025.7 |
| 20260906020235 | 59 | 107 | 0.0 | 1.0 | 0.00 | 0.00 | 0.00 | 89 | 1025.7 |
| 20260906015702 | 60 | 102 | 0.0 | 1.0 | 0.00 | 0.00 | 0.00 | 89 | 1025.8 |
| 20260906015452 | 60 | 108 | 0.0 | 3.0 | 0.00 | 0.00 | 0.00 | 89 | 1025.7 |
| 20260906015242 | 60 | 106 | 0.0 | 3.0 | 0.00 | 0.00 | 0.00 | 89 | 1025.7 |
| 20260906015037 | 60 | 105 | 0.0 | 3.0 | 0.00 | 0.00 | 0.00 | 88 | 1025.6 |
| 20260906014837 | 60 | 106 | 0.0 | 3.0 | 0.00 | 0.00 | 0.00 | 88 | 1025.6 |
| 20260906014635 | 60 | 95 | 0.0 | 3.0 | 0.00 | 0.00 | 0.00 | 88 | 1025.6 |
| 20260906014112 | 60 | 81 | 0.0 | 3.0 | 0.00 | 0.00 | 0.00 | 88 | 1025.6 |
| 20260906013905 | 60 | 76 | 0.0 | 3.0 | 0.00 | 0.00 | 0.00 | 88 | 1025.6 |
| 20260906013019 | 60 | 88 | 0.0 | 2.0 | 0.00 | 0.00 | 0.00 | 88 | 1025.6 |
| 20260906012817 | 60 | 97 | 0.0 | 3.0 | 0.00 | 0.00 | 0.00 | 88 | 1025.6 |
| 20260906012613 | 60 | 89 | 0.0 | 3.0 | 0.00 | 0.00 | 0.00 | 87 | 1025.6 |
| 20260906012412 | 61 | 98 | 1.0 | 3.0 | 0.00 | 0.00 | 0.00 | 87 | 1025.5 |
| 20260906011844 | 61 | 101 | 1.0 | 3.0 | 0.00 | 0.00 | 0.00 | 87 | 1025.6 |
| 20260906011637 | 61 | 96 | 1.0 | 3.0 | 0.00 | 0.00 | 0.00 | 87 | 1025.6 |
| 20260906011436 | 61 | 98 | 0.0 | 3.0 | 0.00 | 0.00 | 0.00 | 87 | 1025.6 |
| 20260906011226 | 61 | 109 | 0.0 | 3.0 | 0.00 | 0.00 | 0.00 | 87 | 1025.6 |
| 20260906011027 | 61 | 98 | 0.0 | 3.0 | 0.00 | 0.00 | 0.00 | 87 | 1025.6 |
| 20260906010147 | 61 | 105 | 0.0 | 3.0 | 0.00 | 0.00 | 0.00 | 86 | 1025.4 |
| 20260906005629 | 62 | 89 | 0.0 | 3.0 | 0.00 | 0.00 | 0.00 | 86 | 1025.4 |
| 20260906005428 | 62 | 74 | 0.0 | 3.0 | 0.00 | 0.00 | 0.00 | 86 | 1025.5 |
| 20260906005225 | 61 | 73 | 0.0 | 3.0 | 0.00 | 0.00 | 0.00 | 87 | 1025.5 |
| 20260906005017 | 61 | 54 | 0.0 | 3.0 | 0.00 | 0.00 | 0.00 | 87 | 1025.5 |
| 20260906004809 | 61 | 82 | 0.0 | 2.0 | 0.00 | 0.00 | 0.00 | 87 | 1025.6 |
| 20260906004601 | 61 | 89 | 0.0 | 2.0 | 0.00 | 0.00 | 0.00 | 86 | 1025.5 |
| 20260906004400 | 61 | 89 | 0.0 | 2.0 | 0.00 | 0.00 | 0.00 | 86 | 1025.4 |
| 20260906004200 | 61 | 105 | 0.0 | 2.0 | 0.00 | 0.00 | 0.00 | 86 | 1025.5 |
| 20260906003951 | 62 | 78 | 0.0 | 2.0 | 0.00 | 0.00 | 0.00 | 86 | 1025.5 |
| 20260906003740 | 62 | 72 | 0.0 | 2.0 | 0.00 | 0.00 | 0.00 | 86 | 1025.5 |
| 20260906003530 | 62 | 71 | 0.0 | 2.0 | 0.00 | 0.00 | 0.00 | 86 | 1025.6 |
| 20260906003328 | 62 | 71 | 0.0 | 4.0 | 0.00 | 0.00 | 0.00 | 86 | 1025.6 |
| 20260906003127 | 62 | 56 | 0.0 | 4.0 | 0.00 | 0.00 | 0.00 | 86 | 1025.5 |
| 20260906002244 | 62 | 77 | 1.0 | 4.0 | 0.00 | 0.00 | 0.00 | 86 | 1025.6 |
| 20260906001357 | 61 | 71 | 0.0 | 3.0 | 0.00 | 0.00 | 0.00 | 87 | 1025.6 |
| 20260906001152 | 61 | 69 | 0.0 | 3.0 | 0.00 | 0.00 | 0.00 | 87 | 1025.7 |
| 20260906000947 | 61 | 107 | 1.0 | 3.0 | 0.00 | 0.00 | 0.00 | 87 | 1025.6 |
| 20260906000106 | 61 | 96 | 1.0 | 3.0 | 0.00 | 0.00 | 0.00 | 87 | 1025.6 |
| 20260905235905 | 61 | 91 | 1.0 | 3.0 | 0.00 | 0.00 | 0.00 | 87 | 1025.7 |
| 20260905235702 | 61 | 103 | 1.0 | 3.0 | 0.00 | 0.00 | 0.00 | 87 | 1025.8 |
| 20260905235454 | 61 | 99 | 1.0 | 4.0 | 0.00 | 0.00 | 0.00 | 87 | 1025.8 |
| 20260905235246 | 61 | 105 | 1.0 | 4.0 | 0.00 | 0.00 | 0.00 | 87 | 1025.8 |
| 20260905235041 | 61 | 117 | 1.0 | 4.0 | 0.00 | 0.00 | 0.00 | 86 | 1025.8 |
| 20260905234832 | 61 | 98 | 1.0 | 4.0 | 0.00 | 0.00 | 0.00 | 86 | 1025.8 |
| 20260905234624 | 61 | 108 | 1.0 | 4.0 | 0.00 | 0.00 | 0.00 | 86 | 1025.8 |
| 20260905234418 | 61 | 114 | 1.0 | 4.0 | 0.00 | 0.00 | 0.00 | 86 | 1025.8 |
| 20260905234212 | 61 | 101 | 1.0 | 4.0 | 0.00 | 0.00 | 0.00 | 86 | 1025.8 |
| 20260905234002 | 62 | 100 | 1.0 | 4.0 | 0.00 | 0.00 | 0.00 | 85 | 1025.9 |
| 20260905233755 | 62 | 101 | 1.0 | 4.0 | 0.00 | 0.00 | 0.00 | 85 | 1025.9 |
| 20260905233547 | 62 | 103 | 1.0 | 4.0 | 0.00 | 0.00 | 0.00 | 85 | 1025.9 |
| 20260905233340 | 62 | 113 | 1.0 | 3.0 | 0.00 | 0.00 | 0.00 | 85 | 1025.9 |
| 20260905233140 | 62 | 96 | 1.0 | 3.0 | 0.00 | 0.00 | 0.00 | 85 | 1025.9 |
| 20260905232941 | 62 | 102 | 1.0 | 3.0 | 0.00 | 0.00 | 0.00 | 85 | 1026.0 |
| 20260905232737 | 62 | 87 | 1.0 | 3.0 | 0.00 | 0.00 | 0.00 | 86 | 1026.0 |
| 20260905232208 | 62 | 106 | 1.0 | 3.0 | 0.00 | 0.00 | 0.00 | 85 | 1026.0 |
| 20260905232001 | 62 | 114 | 1.0 | 3.0 | 0.00 | 0.00 | 0.00 | 85 | 1026.0 |
| 20260905231751 | 62 | 120 | 1.0 | 3.0 | 0.00 | 0.00 | 0.00 | 85 | 1026.0 |
| 20260905231550 | 62 | 94 | 1.0 | 3.0 | 0.00 | 0.00 | 0.00 | 85 | 1026.1 |
| 20260905231342 | 62 | 107 | 1.0 | 3.0 | 0.00 | 0.00 | 0.00 | 85 | 1025.9 |
| 20260905231132 | 62 | 101 | 1.0 | 3.0 | 0.00 | 0.00 | 0.00 | 85 | 1026.0 |
| 20260905230928 | 62 | 87 | 1.0 | 3.0 | 0.00 | 0.00 | 0.00 | 85 | 1026.0 |
| 20260905230726 | 62 | 127 | 1.0 | 3.0 | 0.00 | 0.00 | 0.00 | 84 | 1026.0 |
| 20260905230200 | 62 | 94 | 1.0 | 3.0 | 0.00 | 0.00 | 0.00 | 84 | 1026.1 |
| 20260905230001 | 62 | 107 | 0.0 | 3.0 | 0.00 | 0.00 | 0.00 | 84 | 1026.0 |
| 20260905225801 | 62 | 110 | 0.0 | 3.0 | 0.00 | 0.00 | 0.00 | 84 | 1026.0 |
| 20260905225552 | 62 | 119 | 0.0 | 2.0 | 0.00 | 0.00 | 0.00 | 84 | 1026.1 |
| 20260905225351 | 62 | 90 | 0.0 | 2.0 | 0.00 | 0.00 | 0.00 | 84 | 1026.1 |
| 20260905225152 | 62 | 92 | 0.0 | 2.0 | 0.00 | 0.00 | 0.00 | 83 | 1026.2 |
| 20260905224951 | 62 | 97 | 0.0 | 2.0 | 0.00 | 0.00 | 0.00 | 83 | 1026.2 |
| 20260905224429 | 63 | 95 | 0.0 | 2.0 | 0.00 | 0.00 | 0.00 | 82 | 1026.2 |
| 20260905224224 | 63 | 83 | 0.0 | 2.0 | 0.00 | 0.00 | 0.00 | 82 | 1026.2 |
| 20260905224023 | 63 | 77 | 0.0 | 2.0 | 0.00 | 0.00 | 0.00 | 82 | 1026.2 |
| 20260905223137 | 63 | 62 | 0.0 | 2.0 | 0.00 | 0.00 | 0.00 | 81 | 1026.1 |
| 20260905222933 | 63 | 77 | 0.0 | 2.0 | 0.00 | 0.00 | 0.00 | 81 | 1026.1 |
| 20260905222727 | 63 | 77 | 0.0 | 2.0 | 0.00 | 0.00 | 0.00 | 81 | 1026.1 |
| 20260905222520 | 63 | 77 | 0.0 | 2.0 | 0.00 | 0.00 | 0.00 | 81 | 1026.1 |
| 20260905222317 | 63 | 67 | 0.0 | 2.0 | 0.00 | 0.00 | 0.00 | 81 | 1026.1 |
| 20260905222115 | 64 | 75 | 0.0 | 3.0 | 0.00 | 0.00 | 0.00 | 81 | 1026.1 |
| 20260905221906 | 64 | 67 | 0.0 | 3.0 | 0.00 | 0.00 | 0.00 | 80 | 1026.0 |
| 20260905221705 | 64 | 68 | 0.0 | 3.0 | 0.00 | 0.00 | 0.00 | 80 | 1026.0 |
| 20260905221500 | 64 | 69 | 0.0 | 3.0 | 0.00 | 0.00 | 0.00 | 80 | 1026.1 |
| 20260905221255 | 64 | 44 | 0.0 | 3.0 | 0.00 | 0.00 | 0.00 | 80 | 1026.1 |
| 20260905221045 | 64 | 38 | 0.0 | 3.0 | 0.00 | 0.00 | 0.00 | 80 | 1026.1 |
| 20260905220843 | 64 | 38 | 0.0 | 3.0 | 0.00 | 0.00 | 0.00 | 80 | 1026.1 |
| 20260905220004 | 64 | 66 | 0.0 | 2.0 | 0.00 | 0.00 | 0.00 | 79 | 1026.1 |
| 20260905215757 | 64 | 57 | 0.0 | 2.0 | 0.00 | 0.00 | 0.00 | 79 | 1026.1 |
| 20260905215558 | 64 | 39 | 0.0 | 2.0 | 0.00 | 0.00 | 0.00 | 79 | 1026.1 |
| 20260905215356 | 65 | 69 | 0.0 | 1.0 | 0.00 | 0.00 | 0.00 | 79 | 1026.1 |
| 20260905214842 | 65 | 64 | 0.0 | 1.0 | 0.00 | 0.00 | 0.00 | 78 | 1026.1 |
| 20260905214634 | 65 | 73 | 0.0 | 2.0 | 0.00 | 0.00 | 0.00 | 78 | 1026.1 |
| 20260905214107 | 65 | 72 | 0.0 | 2.0 | 0.00 | 0.00 | 0.00 | 78 | 1026.2 |
| 20260905213906 | 65 | 75 | 0.0 | 2.0 | 0.00 | 0.00 | 0.00 | 77 | 1026.2 |
| 20260905213706 | 65 | 45 | 0.0 | 2.0 | 0.00 | 0.00 | 0.00 | 78 | 1026.3 |
| 20260905213455 | 65 | 56 | 0.0 | 2.0 | 0.00 | 0.00 | 0.00 | 77 | 1026.3 |
| 20260905213249 | 65 | 56 | 0.0 | 2.0 | 0.00 | 0.00 | 0.00 | 77 | 1026.3 |
| 20260905213042 | 65 | 68 | 0.0 | 2.0 | 0.00 | 0.00 | 0.00 | 77 | 1026.3 |
| 20260905212839 | 65 | 70 | 0.0 | 2.0 | 0.00 | 0.00 | 0.00 | 77 | 1026.3 |
| 20260905212638 | 65 | 78 | 0.0 | 2.0 | 0.00 | 0.00 | 0.00 | 77 | 1026.2 |
| 20260905212435 | 65 | 69 | 0.0 | 2.0 | 0.00 | 0.00 | 0.00 | 77 | 1026.3 |
| 20260905212225 | 65 | 43 | 0.0 | 2.0 | 0.00 | 0.00 | 0.00 | 77 | 1026.3 |
| 20260905211339 | 65 | 37 | 0.0 | 3.0 | 0.00 | 0.00 | 0.00 | 77 | 1026.2 |
| 20260905211140 | 65 | 69 | 0.0 | 3.0 | 0.00 | 0.00 | 0.00 | 77 | 1026.3 |
| 20260905210933 | 65 | 71 | 0.0 | 5.0 | 0.00 | 0.00 | 0.00 | 78 | 1026.3 |
| 20260905210730 | 65 | 92 | 0.0 | 5.0 | 0.00 | 0.00 | 0.00 | 78 | 1026.3 |
| 20260905210530 | 65 | 102 | 0.0 | 5.0 | 0.00 | 0.00 | 0.00 | 78 | 1026.3 |
| 20260905210320 | 65 | 71 | 1.0 | 5.0 | 0.00 | 0.00 | 0.00 | 77 | 1026.2 |
| 20260905210111 | 65 | 75 | 1.0 | 6.0 | 0.00 | 0.00 | 0.00 | 77 | 1026.2 |
| 20260905205905 | 65 | 49 | 1.0 | 6.0 | 0.00 | 0.00 | 0.00 | 77 | 1026.3 |
| 20260905205702 | 65 | 60 | 1.0 | 6.0 | 0.00 | 0.00 | 0.00 | 77 | 1026.2 |
| 20260905205453 | 65 | 66 | 1.0 | 6.0 | 0.00 | 0.00 | 0.00 | 77 | 1026.2 |
| 20260905205246 | 65 | 114 | 1.0 | 6.0 | 0.00 | 0.00 | 0.00 | 77 | 1026.3 |
| 20260905204721 | 66 | 49 | 2.0 | 6.0 | 0.00 | 0.00 | 0.00 | 77 | 1026.4 |
| 20260905204153 | 66 | 65 | 1.0 | 6.0 | 0.00 | 0.00 | 0.00 | 77 | 1026.3 |
| 20260905203946 | 65 | 46 | 0.0 | 4.0 | 0.00 | 0.00 | 0.00 | 78 | 1026.3 |
| 20260905203741 | 65 | 75 | 0.0 | 3.0 | 0.00 | 0.00 | 0.00 | 78 | 1026.4 |
| 20260905203531 | 65 | 71 | 0.0 | 2.0 | 0.00 | 0.00 | 0.00 | 78 | 1026.5 |
| 20260905203327 | 65 | 71 | 0.0 | 2.0 | 0.00 | 0.00 | 0.00 | 78 | 1026.5 |
| 20260905203120 | 65 | 80 | 0.0 | 2.0 | 0.00 | 0.00 | 0.00 | 78 | 1026.4 |
| 20260905202921 | 65 | 80 | 0.0 | 2.0 | 0.00 | 0.00 | 0.00 | 78 | 1026.5 |
| 20260905202715 | 65 | 72 | 1.0 | 2.0 | 0.00 | 0.00 | 0.00 | 78 | 1026.4 |
| 20260905202515 | 65 | 62 | 0.0 | 2.0 | 0.00 | 0.00 | 0.00 | 78 | 1026.5 |
| 20260905201946 | 66 | 70 | 0.0 | 2.0 | 0.00 | 0.00 | 0.00 | 78 | 1026.5 |
| 20260905201747 | 66 | 78 | 0.0 | 2.0 | 0.00 | 0.00 | 0.00 | 78 | 1026.5 |
| 20260905201547 | 66 | 77 | 0.0 | 1.0 | 0.00 | 0.00 | 0.00 | 78 | 1026.5 |
| 20260905201338 | 66 | 78 | 0.0 | 1.0 | 0.00 | 0.00 | 0.00 | 78 | 1026.5 |
| 20260905201135 | 66 | 64 | 0.0 | 1.0 | 0.00 | 0.00 | 0.00 | 78 | 1026.5 |
| 20260905200928 | 66 | 59 | 0.0 | 1.0 | 0.00 | 0.00 | 0.00 | 78 | 1026.5 |
| 20260905200720 | 66 | 59 | 0.0 | 3.0 | 0.00 | 0.00 | 0.00 | 78 | 1026.5 |
| 20260905200515 | 66 | 59 | 0.0 | 5.0 | 0.00 | 0.00 | 0.00 | 78 | 1026.5 |
| 20260905200307 | 66 | 51 | 1.0 | 5.0 | 0.00 | 0.00 | 0.00 | 78 | 1026.5 |
| 20260905200107 | 66 | 37 | 1.0 | 5.0 | 0.00 | 0.00 | 0.00 | 77 | 1026.5 |
| 20260905195904 | 66 | 46 | 1.0 | 5.0 | 0.00 | 0.00 | 0.00 | 77 | 1026.5 |
| 20260905195342 | 66 | 47 | 1.0 | 5.0 | 0.00 | 0.00 | 0.00 | 77 | 1026.5 |
| 20260905195141 | 66 | 51 | 1.0 | 5.0 | 0.00 | 0.00 | 0.00 | 77 | 1026.5 |
| 20260905194935 | 66 | 60 | 0.0 | 5.0 | 0.00 | 0.00 | 0.00 | 77 | 1026.5 |
| 20260905194734 | 66 | 44 | 0.0 | 5.0 | 0.00 | 0.00 | 0.00 | 77 | 1026.5 |
| 20260905194528 | 66 | 44 | 1.0 | 5.0 | 0.00 | 0.00 | 0.00 | 77 | 1026.4 |
| 20260905194329 | 66 | 68 | 1.0 | 5.0 | 0.00 | 0.00 | 0.00 | 77 | 1026.3 |
| 20260905194129 | 66 | 77 | 1.0 | 5.0 | 0.00 | 0.00 | 0.00 | 77 | 1026.3 |
| 20260905193928 | 66 | 60 | 1.0 | 5.0 | 0.00 | 0.00 | 0.00 | 77 | 1026.2 |
| 20260905193407 | 66 | 41 | 1.0 | 5.0 | 0.00 | 0.00 | 0.00 | 77 | 1026.2 |
| 20260905193208 | 67 | 60 | 1.0 | 5.0 | 0.00 | 0.00 | 0.00 | 77 | 1026.2 |
| 20260905193004 | 67 | 60 | 1.0 | 5.0 | 0.00 | 0.00 | 0.00 | 77 | 1026.2 |
| 20260905192805 | 67 | 71 | 1.0 | 5.0 | 0.00 | 0.00 | 0.00 | 77 | 1026.1 |
| 20260905192604 | 67 | 53 | 1.0 | 5.0 | 0.00 | 0.00 | 0.00 | 77 | 1026.2 |
| 20260905192357 | 66 | 33 | 1.0 | 5.0 | 0.00 | 0.00 | 0.00 | 77 | 1026.2 |
| 20260905191837 | 67 | 53 | 1.0 | 5.0 | 0.00 | 0.00 | 0.00 | 77 | 1026.1 |
| 20260905191635 | 67 | 49 | 1.0 | 5.0 | 0.00 | 0.00 | 0.00 | 77 | 1026.1 |
| 20260905191432 | 66 | 37 | 1.0 | 5.0 | 0.00 | 0.00 | 0.00 | 77 | 1026.1 |
| 20260905190905 | 66 | 45 | 0.0 | 4.0 | 0.00 | 0.00 | 0.00 | 78 | 1026.1 |
| 20260905190659 | 66 | 55 | 0.0 | 3.0 | 0.00 | 0.00 | 0.00 | 78 | 1026.1 |
| 20260905190456 | 66 | 83 | 1.0 | 3.0 | 0.00 | 0.00 | 0.00 | 78 | 1026.2 |
| 20260905190251 | 66 | 80 | 1.0 | 3.0 | 0.00 | 0.00 | 0.00 | 78 | 1026.1 |
| 20260905190046 | 66 | 86 | 1.0 | 3.0 | 0.00 | 0.00 | 0.00 | 78 | 1026.1 |
| 20260905185526 | 66 | 75 | 0.0 | 3.0 | 0.00 | 0.00 | 0.00 | 78 | 1026.1 |
| 20260905185315 | 66 | 65 | 0.0 | 5.0 | 0.00 | 0.00 | 0.00 | 78 | 1026.1 |
| 20260905185115 | 67 | 54 | 0.0 | 5.0 | 0.00 | 0.00 | 0.00 | 78 | 1026.1 |
| 20260905184910 | 67 | 51 | 1.0 | 5.0 | 0.00 | 0.00 | 0.00 | 78 | 1026.1 |
| 20260905184659 | 67 | 68 | 1.0 | 5.0 | 0.00 | 0.00 | 0.00 | 78 | 1026.0 |
| 20260905184453 | 67 | 60 | 2.0 | 5.0 | 0.00 | 0.00 | 0.00 | 78 | 1026.0 |
| 20260905184246 | 67 | 49 | 1.0 | 5.0 | 0.00 | 0.00 | 0.00 | 78 | 1025.9 |
| 20260905184038 | 67 | 45 | 1.0 | 5.0 | 0.00 | 0.00 | 0.00 | 77 | 1025.9 |
| 20260905183833 | 67 | 58 | 1.0 | 5.0 | 0.00 | 0.00 | 0.00 | 77 | 1025.9 |
| 20260905183632 | 67 | 63 | 1.0 | 5.0 | 0.00 | 0.00 | 0.00 | 77 | 1025.9 |
| 20260905183429 | 67 | 44 | 1.0 | 5.0 | 0.00 | 0.00 | 0.00 | 77 | 1025.8 |
| 20260905183223 | 67 | 49 | 1.0 | 5.0 | 0.00 | 0.00 | 0.00 | 77 | 1025.9 |
| 20260905183024 | 67 | 348 | 0.0 | 5.0 | 0.00 | 0.00 | 0.00 | 77 | 1025.8 |
| 20260905182813 | 67 | 50 | 0.0 | 5.0 | 0.00 | 0.00 | 0.00 | 77 | 1025.8 |
| 20260905182610 | 67 | 44 | 0.0 | 5.0 | 0.00 | 0.00 | 0.00 | 77 | 1025.8 |
| 20260905182410 | 67 | 25 | 0.0 | 5.0 | 0.00 | 0.00 | 0.00 | 77 | 1025.7 |
| 20260905182202 | 67 | 60 | 0.0 | 3.0 | 0.00 | 0.00 | 0.00 | 77 | 1025.8 |
| 20260905182001 | 67 | 83 | 0.0 | 3.0 | 0.00 | 0.00 | 0.00 | 77 | 1025.8 |
| 20260905181756 | 67 | 49 | 0.0 | 6.0 | 0.00 | 0.00 | 0.00 | 77 | 1025.8 |
| 20260905180910 | 67 | 83 | 2.0 | 6.0 | 0.00 | 0.00 | 0.00 | 77 | 1025.6 |
| 20260905180709 | 67 | 41 | 2.0 | 6.0 | 0.00 | 0.00 | 0.00 | 77 | 1025.6 |
| 20260905175500 | 68 | 39 | 2.0 | 6.0 | 0.00 | 0.00 | 0.00 | 77 | 1025.6 |
| 20260905175253 | 68 | 68 | 2.0 | 6.0 | 0.00 | 0.00 | 0.00 | 77 | 1025.6 |
| 20260905175044 | 68 | 46 | 2.0 | 6.0 | 0.00 | 0.00 | 0.00 | 77 | 1025.5 |
| 20260905174842 | 68 | 52 | 2.0 | 6.0 | 0.00 | 0.00 | 0.00 | 76 | 1025.5 |
| 20260905174632 | 68 | 68 | 3.0 | 6.0 | 0.00 | 0.00 | 0.00 | 76 | 1025.5 |
| 20260905174423 | 68 | 50 | 3.0 | 6.0 | 0.00 | 0.00 | 0.00 | 76 | 1025.6 |
| 20260905174216 | 68 | 43 | 3.0 | 6.0 | 0.00 | 0.00 | 0.00 | 76 | 1025.5 |
| 20260905174010 | 68 | 46 | 2.0 | 6.0 | 0.00 | 0.00 | 0.00 | 76 | 1025.6 |
| 20260905173810 | 68 | 52 | 2.0 | 6.0 | 0.00 | 0.00 | 0.00 | 76 | 1025.5 |
| 20260905173607 | 69 | 25 | 2.0 | 5.0 | 0.00 | 0.00 | 0.00 | 76 | 1025.5 |
| 20260905173047 | 69 | 50 | 2.0 | 4.0 | 0.00 | 0.00 | 0.00 | 75 | 1025.4 |
| 20260905172847 | 69 | 41 | 1.0 | 4.0 | 0.00 | 0.00 | 0.00 | 75 | 1025.3 |
| 20260905172643 | 69 | 46 | 1.0 | 7.0 | 0.00 | 0.00 | 0.00 | 75 | 1025.3 |
| 20260905172433 | 69 | 70 | 1.0 | 7.0 | 0.00 | 0.00 | 0.00 | 75 | 1025.4 |
| 20260905171915 | 70 | 85 | 2.0 | 7.0 | 0.00 | 0.00 | 0.00 | 74 | 1025.4 |
| 20260905171711 | 70 | 44 | 2.0 | 7.0 | 0.00 | 0.00 | 0.00 | 74 | 1025.3 |
| 20260905171507 | 70 | 56 | 2.0 | 7.0 | 0.00 | 0.00 | 0.00 | 73 | 1025.4 |
| 20260905171302 | 70 | 53 | 2.0 | 7.0 | 0.00 | 0.00 | 0.00 | 73 | 1025.3 |
| 20260905171057 | 70 | 46 | 2.0 | 7.0 | 0.00 | 0.00 | 0.00 | 72 | 1025.3 |
| 20260905170858 | 70 | 47 | 2.0 | 7.0 | 0.00 | 0.00 | 0.00 | 72 | 1025.3 |
| 20260905170658 | 70 | 72 | 2.0 | 6.0 | 0.00 | 0.00 | 0.00 | 72 | 1025.3 |
| 20260905165809 | 71 | 48 | 0.0 | 4.0 | 0.00 | 0.00 | 0.00 | 71 | 1025.2 |
| 20260905165600 | 71 | 53 | 0.0 | 4.0 | 0.00 | 0.00 | 0.00 | 71 | 1025.1 |
| 20260905165355 | 71 | 32 | 0.0 | 4.0 | 0.00 | 0.00 | 0.00 | 71 | 1025.2 |
| 20260905165155 | 71 | 31 | 1.0 | 4.0 | 0.00 | 0.00 | 0.00 | 71 | 1025.2 |
| 20260905164949 | 71 | 55 | 1.0 | 4.0 | 0.00 | 0.00 | 0.00 | 71 | 1025.2 |
| 20260905164739 | 71 | 45 | 1.0 | 4.0 | 0.00 | 0.00 | 0.00 | 70 | 1025.2 |
| 20260905164533 | 71 | 49 | 1.0 | 4.0 | 0.00 | 0.00 | 0.00 | 70 | 1025.2 |
| 20260905164325 | 71 | 71 | 0.0 | 4.0 | 0.00 | 0.00 | 0.00 | 70 | 1025.2 |
| 20260905164118 | 71 | 46 | 0.0 | 4.0 | 0.00 | 0.00 | 0.00 | 70 | 1025.2 |
| 20260905163914 | 71 | 46 | 0.0 | 2.0 | 0.00 | 0.00 | 0.00 | 70 | 1025.1 |
| 20260905163712 | 71 | 77 | 0.0 | 1.0 | 0.00 | 0.00 | 0.00 | 70 | 1025.2 |
| 20260905163507 | 71 | 74 | 0.0 | 1.0 | 0.00 | 0.00 | 0.00 | 70 | 1025.1 |
| 20260905162935 | 71 | 78 | 0.0 | 3.0 | 0.00 | 0.00 | 0.00 | 69 | 1025.1 |
| 20260905162733 | 71 | 84 | 0.0 | 3.0 | 0.00 | 0.00 | 0.00 | 69 | 1025.1 |
| 20260905162526 | 71 | 75 | 0.0 | 3.0 | 0.00 | 0.00 | 0.00 | 70 | 1025.1 |
| 20260905162320 | 71 | 77 | 0.0 | 3.0 | 0.00 | 0.00 | 0.00 | 70 | 1025.1 |
| 20260905162119 | 71 | 77 | 0.0 | 3.0 | 0.00 | 0.00 | 0.00 | 70 | 1025.1 |
| 20260905161554 | 71 | 58 | 0.0 | 3.0 | 0.00 | 0.00 | 0.00 | 69 | 1025.0 |
| 20260905161033 | 71 | 69 | 0.0 | 4.0 | 0.00 | 0.00 | 0.00 | 70 | 1025.0 |
| 20260905160828 | 72 | 65 | 1.0 | 4.0 | 0.00 | 0.00 | 0.00 | 69 | 1024.9 |
| 20260905160254 | 72 | 84 | 1.0 | 6.0 | 0.00 | 0.00 | 0.00 | 69 | 1025.0 |
| 20260905160055 | 72 | 73 | 1.0 | 6.0 | 0.00 | 0.00 | 0.00 | 69 | 1024.9 |
| 20260905155852 | 72 | 102 | 1.0 | 6.0 | 0.00 | 0.00 | 0.00 | 69 | 1025.0 |
| 20260905155325 | 72 | 81 | 2.0 | 6.0 | 0.00 | 0.00 | 0.00 | 69 | 1024.9 |
| 20260905155125 | 72 | 60 | 2.0 | 6.0 | 0.00 | 0.00 | 0.00 | 69 | 1025.0 |
| 20260905154922 | 72 | 42 | 2.0 | 6.0 | 0.00 | 0.00 | 0.00 | 69 | 1024.9 |
| 20260905154713 | 72 | 31 | 1.0 | 6.0 | 0.00 | 0.00 | 0.00 | 68 | 1024.9 |
| 20260905154504 | 73 | 55 | 1.0 | 6.0 | 0.00 | 0.00 | 0.00 | 68 | 1025.0 |
| 20260905153942 | 73 | 82 | 0.0 | 4.0 | 0.00 | 0.00 | 0.00 | 66 | 1025.1 |
| 20260905153743 | 73 | 193 | 0.0 | 3.0 | 0.00 | 0.00 | 0.00 | 64 | 1025.0 |
| 20260905153532 | 73 | 272 | 0.0 | 1.0 | 0.00 | 0.00 | 0.00 | 65 | 1025.0 |
| 20260905153324 | 73 | 246 | 0.0 | 1.0 | 0.00 | 0.00 | 0.00 | 64 | 1025.0 |
| 20260905153121 | 73 | 268 | 0.0 | 6.0 | 0.00 | 0.00 | 0.00 | 65 | 1025.0 |
| 20260905152913 | 73 | 269 | 1.0 | 6.0 | 0.00 | 0.00 | 0.00 | 65 | 1025.0 |
| 20260905152707 | 73 | 285 | 2.0 | 6.0 | 0.00 | 0.00 | 0.00 | 64 | 1024.9 |
| 20260905152458 | 73 | 278 | 2.0 | 6.0 | 0.00 | 0.00 | 0.00 | 65 | 1024.9 |
| 20260905151925 | 73 | 290 | 1.0 | 6.0 | 0.00 | 0.00 | 0.00 | 64 | 1025.0 |
| 20260905151717 | 73 | 291 | 0.0 | 5.0 | 0.00 | 0.00 | 0.00 | 64 | 1025.0 |
| 20260905151517 | 73 | 261 | 0.0 | 3.0 | 0.00 | 0.00 | 0.00 | 66 | 1025.0 |
| 20260905151314 | 73 | 257 | 0.0 | 3.0 | 0.00 | 0.00 | 0.00 | 67 | 1025.0 |
| 20260905151105 | 73 | 285 | 0.0 | 4.0 | 0.00 | 0.00 | 0.00 | 65 | 1025.0 |
| 20260905150540 | 73 | 295 | 1.0 | 4.0 | 0.00 | 0.00 | 0.00 | 67 | 1025.0 |
| 20260905150334 | 73 | 288 | 1.0 | 4.0 | 0.00 | 0.00 | 0.00 | 65 | 1025.0 |
| 20260905150128 | 73 | 270 | 1.0 | 5.0 | 0.00 | 0.00 | 0.00 | 65 | 1025.0 |
| 20260905145604 | 73 | 283 | 0.0 | 5.0 | 0.00 | 0.00 | 0.00 | 65 | 1025.0 |
| 20260905145359 | 73 | 274 | 1.0 | 5.0 | 0.00 | 0.00 | 0.00 | 65 | 1025.0 |
| 20260905145154 | 73 | 264 | 1.0 | 5.0 | 0.00 | 0.00 | 0.00 | 65 | 1024.9 |
| 20260905144315 | 73 | 267 | 1.0 | 5.0 | 0.00 | 0.00 | 0.00 | 65 | 1025.0 |
| 20260905144105 | 73 | 269 | 1.0 | 6.0 | 0.00 | 0.00 | 0.00 | 65 | 1025.1 |
| 20260905143856 | 74 | 278 | 1.0 | 6.0 | 0.00 | 0.00 | 0.00 | 65 | 1025.0 |
| 20260905143334 | 74 | 245 | 1.0 | 6.0 | 0.00 | 0.00 | 0.00 | 63 | 1025.0 |
| 20260905143132 | 74 | 280 | 1.0 | 6.0 | 0.00 | 0.00 | 0.00 | 64 | 1025.1 |
| 20260905142558 | 74 | 260 | 2.0 | 8.0 | 0.00 | 0.00 | 0.00 | 63 | 1025.1 |
| 20260905142356 | 74 | 226 | 2.0 | 8.0 | 0.00 | 0.00 | 0.00 | 62 | 1025.1 |
| 20260905141520 | 75 | 272 | 2.0 | 9.0 | 0.00 | 0.00 | 0.00 | 62 | 1025.0 |
| 20260905141317 | 75 | 233 | 2.0 | 9.0 | 0.00 | 0.00 | 0.00 | 60 | 1025.0 |
| 20260905141107 | 75 | 326 | 3.0 | 9.0 | 0.00 | 0.00 | 0.00 | 60 | 1025.0 |
| 20260905140907 | 75 | 250 | 3.0 | 9.0 | 0.00 | 0.00 | 0.00 | 62 | 1025.0 |
| 20260905140657 | 75 | 330 | 3.0 | 9.0 | 0.00 | 0.00 | 0.00 | 61 | 1025.0 |
| 20260905140454 | 75 | 299 | 2.0 | 9.0 | 0.00 | 0.00 | 0.00 | 63 | 1025.0 |
| 20260905135606 | 74 | 296 | 2.0 | 9.0 | 0.00 | 0.00 | 0.00 | 63 | 1025.0 |
| 20260905135403 | 74 | 280 | 2.0 | 9.0 | 0.00 | 0.00 | 0.00 | 64 | 1025.0 |
| 20260905135201 | 74 | 237 | 2.0 | 9.0 | 0.00 | 0.00 | 0.00 | 62 | 1025.1 |
| 20260905134953 | 74 | 297 | 1.0 | 9.0 | 0.00 | 0.00 | 0.00 | 62 | 1025.1 |
| 20260905134748 | 74 | 290 | 1.0 | 6.0 | 0.00 | 0.00 | 0.00 | 63 | 1025.0 |
| 20260905134539 | 74 | 294 | 1.0 | 7.0 | 0.00 | 0.00 | 0.00 | 62 | 1025.0 |
| 20260905134334 | 74 | 271 | 1.0 | 7.0 | 0.00 | 0.00 | 0.00 | 61 | 1025.0 |
| 20260905134125 | 74 | 287 | 1.0 | 7.0 | 0.00 | 0.00 | 0.00 | 63 | 1025.0 |
| 20260905133917 | 74 | 221 | 2.0 | 7.0 | 0.00 | 0.00 | 0.00 | 64 | 1025.0 |
| 20260905133716 | 74 | 298 | 2.0 | 7.0 | 0.00 | 0.00 | 0.00 | 62 | 1025.0 |
| 20260905133516 | 74 | 302 | 3.0 | 7.0 | 0.00 | 0.00 | 0.00 | 62 | 1025.0 |
| 20260905132949 | 74 | 288 | 2.0 | 7.0 | 0.00 | 0.00 | 0.00 | 61 | 1024.9 |
| 20260905132741 | 74 | 295 | 2.0 | 5.0 | 0.00 | 0.00 | 0.00 | 61 | 1025.0 |
| 20260905132535 | 74 | 288 | 2.0 | 5.0 | 0.00 | 0.00 | 0.00 | 61 | 1025.0 |
| 20260905132334 | 74 | 281 | 2.0 | 8.0 | 0.00 | 0.00 | 0.00 | 62 | 1025.1 |
| 20260905132125 | 74 | 290 | 2.0 | 8.0 | 0.00 | 0.00 | 0.00 | 61 | 1025.0 |
| 20260905131922 | 75 | 302 | 1.0 | 8.0 | 0.00 | 0.00 | 0.00 | 60 | 1025.0 |
| 20260905131713 | 75 | 293 | 1.0 | 8.0 | 0.00 | 0.00 | 0.00 | 61 | 1025.0 |
| 20260905131513 | 75 | 304 | 1.0 | 8.0 | 0.00 | 0.00 | 0.00 | 63 | 1025.0 |
| 20260905131304 | 75 | 266 | 1.0 | 8.0 | 0.00 | 0.00 | 0.00 | 62 | 1025.0 |
| 20260905131100 | 74 | 279 | 2.0 | 8.0 | 0.00 | 0.00 | 0.00 | 63 | 1025.0 |
| 20260905130859 | 74 | 288 | 2.0 | 8.0 | 0.00 | 0.00 | 0.00 | 61 | 1025.0 |
| 20260905130652 | 74 | 297 | 1.0 | 8.0 | 0.00 | 0.00 | 0.00 | 58 | 1025.0 |
| 20260905130126 | 75 | 248 | 1.0 | 5.0 | 0.00 | 0.00 | 0.00 | 59 | 1025.0 |
| 20260905125924 | 75 | 247 | 1.0 | 5.0 | 0.00 | 0.00 | 0.00 | 60 | 1024.9 |
| 20260905125718 | 75 | 259 | 1.0 | 5.0 | 0.00 | 0.00 | 0.00 | 60 | 1025.0 |
| 20260905125510 | 76 | 290 | 1.0 | 5.0 | 0.00 | 0.00 | 0.00 | 58 | 1025.0 |
| 20260905125305 | 75 | 253 | 1.0 | 5.0 | 0.00 | 0.00 | 0.00 | 57 | 1024.9 |
| 20260905125053 | 75 | 300 | 0.0 | 5.0 | 0.00 | 0.00 | 0.00 | 58 | 1024.9 |
| 20260905124844 | 75 | 211 | 0.0 | 4.0 | 0.00 | 0.00 | 0.00 | 60 | 1024.9 |
| 20260905124644 | 75 | 287 | 1.0 | 4.0 | 0.00 | 0.00 | 0.00 | 59 | 1025.1 |
| 20260905124434 | 75 | 252 | 1.0 | 4.0 | 0.00 | 0.00 | 0.00 | 60 | 1025.0 |
| 20260905124229 | 75 | 266 | 1.0 | 4.0 | 0.00 | 0.00 | 0.00 | 58 | 1024.9 |
| 20260905124026 | 75 | 224 | 1.0 | 4.0 | 0.00 | 0.00 | 0.00 | 57 | 1024.9 |
| 20260905123503 | 76 | 281 | 1.0 | 5.0 | 0.00 | 0.00 | 0.00 | 60 | 1025.0 |
| 20260905123257 | 76 | 297 | 1.0 | 5.0 | 0.00 | 0.00 | 0.00 | 58 | 1025.0 |
| 20260905123052 | 75 | 268 | 1.0 | 5.0 | 0.00 | 0.00 | 0.00 | 58 | 1025.0 |
| 20260905122847 | 76 | 240 | 1.0 | 5.0 | 0.00 | 0.00 | 0.00 | 61 | 1025.0 |
| 20260905122641 | 76 | 255 | 1.0 | 5.0 | 0.00 | 0.00 | 0.00 | 61 | 1024.9 |
| 20260905122433 | 76 | 259 | 1.0 | 5.0 | 0.00 | 0.00 | 0.00 | 61 | 1024.9 |
| 20260905122228 | 76 | 268 | 0.0 | 5.0 | 0.00 | 0.00 | 0.00 | 62 | 1024.9 |
| 20260905121709 | 76 | 128 | 0.0 | 4.0 | 0.00 | 0.00 | 0.00 | 63 | 1024.9 |
| 20260905121459 | 76 | 296 | 0.0 | 5.0 | 0.00 | 0.00 | 0.00 | 61 | 1025.0 |
| 20260905121251 | 75 | 262 | 0.0 | 5.0 | 0.00 | 0.00 | 0.00 | 62 | 1024.9 |
| 20260905121051 | 75 | 262 | 0.0 | 5.0 | 0.00 | 0.00 | 0.00 | 63 | 1024.9 |
| 20260905120844 | 75 | 293 | 0.0 | 5.0 | 0.00 | 0.00 | 0.00 | 60 | 1024.9 |
| 20260905120314 | 75 | 260 | 0.0 | 4.0 | 0.00 | 0.00 | 0.00 | 62 | 1024.9 |
| 20260905120104 | 75 | 295 | 0.0 | 4.0 | 0.00 | 0.00 | 0.00 | 61 | 1024.9 |
| 20260905115536 | 74 | 263 | 0.0 | 2.0 | 0.00 | 0.00 | 0.00 | 61 | 1024.9 |
| 20260905115335 | 74 | 292 | 1.0 | 9.0 | 0.00 | 0.00 | 0.00 | 61 | 1025.0 |
| 20260905115127 | 74 | 321 | 1.0 | 9.0 | 0.00 | 0.00 | 0.00 | 65 | 1025.0 |
| 20260905114921 | 74 | 238 | 1.0 | 9.0 | 0.00 | 0.00 | 0.00 | 63 | 1025.1 |
| 20260905114717 | 74 | 284 | 1.0 | 9.0 | 0.00 | 0.00 | 0.00 | 62 | 1025.1 |
| 20260905114508 | 74 | 291 | 1.0 | 9.0 | 0.00 | 0.00 | 0.00 | 65 | 1025.0 |
| 20260905114257 | 73 | 241 | 2.0 | 9.0 | 0.00 | 0.00 | 0.00 | 63 | 1025.1 |
| 20260905114057 | 73 | 259 | 2.0 | 9.0 | 0.00 | 0.00 | 0.00 | 63 | 1025.1 |
| 20260905113851 | 73 | 250 | 2.0 | 9.0 | 0.00 | 0.00 | 0.00 | 63 | 1025.1 |
| 20260905113651 | 73 | 304 | 2.0 | 9.0 | 0.00 | 0.00 | 0.00 | 61 | 1025.1 |
| 20260905113442 | 74 | 295 | 1.0 | 5.0 | 0.00 | 0.00 | 0.00 | 63 | 1025.2 |
| 20260905113238 | 74 | 251 | 0.0 | 5.0 | 0.00 | 0.00 | 0.00 | 62 | 1025.2 |
| 20260905113032 | 74 | 283 | 0.0 | 4.0 | 0.00 | 0.00 | 0.00 | 63 | 1025.2 |
| 20260905112828 | 74 | 308 | 0.0 | 4.0 | 0.00 | 0.00 | 0.00 | 63 | 1025.2 |
| 20260905112627 | 74 | 270 | 0.0 | 4.0 | 0.00 | 0.00 | 0.00 | 65 | 1025.3 |
| 20260905112420 | 73 | 264 | 0.0 | 5.0 | 0.00 | 0.00 | 0.00 | 64 | 1025.2 |
| 20260905111852 | 72 | 248 | 1.0 | 5.0 | 0.00 | 0.00 | 0.00 | 64 | 1025.2 |
| 20260905111004 | 72 | 291 | 1.0 | 6.0 | 0.00 | 0.00 | 0.00 | 63 | 1025.3 |
| 20260905110428 | 72 | 302 | 1.0 | 6.0 | 0.00 | 0.00 | 0.00 | 64 | 1025.4 |
| 20260905110221 | 72 | 286 | 1.0 | 6.0 | 0.00 | 0.00 | 0.00 | 65 | 1025.3 |
| 20260905110016 | 72 | 288 | 1.0 | 6.0 | 0.00 | 0.00 | 0.00 | 64 | 1025.3 |
| 20260905105815 | 72 | 248 | 1.0 | 6.0 | 0.00 | 0.00 | 0.00 | 66 | 1025.3 |
| 20260905105610 | 72 | 266 | 1.0 | 6.0 | 0.00 | 0.00 | 0.00 | 65 | 1025.3 |
| 20260905105404 | 72 | 279 | 1.0 | 3.0 | 0.00 | 0.00 | 0.00 | 65 | 1025.2 |
| 20260905105202 | 73 | 299 | 0.0 | 3.0 | 0.00 | 0.00 | 0.00 | 65 | 1025.3 |
| 20260905104957 | 73 | 280 | 1.0 | 5.0 | 0.00 | 0.00 | 0.00 | 65 | 1025.3 |
| 20260905104751 | 73 | 224 | 0.0 | 5.0 | 0.00 | 0.00 | 0.00 | 65 | 1025.3 |
| 20260905104540 | 73 | 270 | 0.0 | 5.0 | 0.00 | 0.00 | 0.00 | 67 | 1025.3 |
| 20260905104339 | 73 | 300 | 0.0 | 5.0 | 0.00 | 0.00 | 0.00 | 63 | 1025.3 |
| 20260905104140 | 73 | 259 | 1.0 | 5.0 | 0.00 | 0.00 | 0.00 | 65 | 1025.3 |
| 20260905103934 | 73 | 293 | 0.0 | 6.0 | 0.00 | 0.00 | 0.00 | 65 | 1025.4 |
| 20260905103401 | 72 | 264 | 0.0 | 6.0 | 0.00 | 0.00 | 0.00 | 67 | 1025.4 |
| 20260905103156 | 72 | 283 | 0.0 | 6.0 | 0.00 | 0.00 | 0.00 | 65 | 1025.4 |
| 20260905102950 | 71 | 223 | 0.0 | 7.0 | 0.00 | 0.00 | 0.00 | 65 | 1025.4 |
| 20260905102746 | 71 | 297 | 1.0 | 7.0 | 0.00 | 0.00 | 0.00 | 63 | 1025.5 |
| 20260905102541 | 71 | 289 | 1.0 | 7.0 | 0.00 | 0.00 | 0.00 | 64 | 1025.5 |
| 20260905102337 | 71 | 260 | 2.0 | 7.0 | 0.00 | 0.00 | 0.00 | 68 | 1025.4 |
| 20260905102135 | 71 | 295 | 2.0 | 7.0 | 0.00 | 0.00 | 0.00 | 65 | 1025.4 |
| 20260905101926 | 71 | 255 | 3.0 | 7.0 | 0.00 | 0.00 | 0.00 | 65 | 1025.5 |
| 20260905101727 | 71 | 295 | 3.0 | 7.0 | 0.00 | 0.00 | 0.00 | 65 | 1025.4 |
| 20260905101526 | 71 | 305 | 3.0 | 7.0 | 0.00 | 0.00 | 0.00 | 66 | 1025.5 |
| 20260905101324 | 71 | 276 | 2.0 | 7.0 | 0.00 | 0.00 | 0.00 | 65 | 1025.4 |
| 20260905101115 | 71 | 307 | 1.0 | 6.0 | 0.00 | 0.00 | 0.00 | 65 | 1025.3 |
| 20260905100912 | 71 | 293 | 2.0 | 6.0 | 0.00 | 0.00 | 0.00 | 63 | 1025.4 |
| 20260905100711 | 71 | 298 | 2.0 | 6.0 | 0.00 | 0.00 | 0.00 | 63 | 1025.4 |
| 20260905100505 | 71 | 271 | 1.0 | 6.0 | 0.00 | 0.00 | 0.00 | 64 | 1025.3 |
| 20260905095945 | 71 | 292 | 2.0 | 6.0 | 0.00 | 0.00 | 0.00 | 67 | 1025.3 |
| 20260905095426 | 70 | 253 | 2.0 | 6.0 | 0.00 | 0.00 | 0.00 | 64 | 1025.5 |
| 20260905095223 | 70 | 310 | 2.0 | 6.0 | 0.00 | 0.00 | 0.00 | 65 | 1025.4 |
| 20260905095020 | 70 | 296 | 2.0 | 5.0 | 0.00 | 0.00 | 0.00 | 65 | 1025.4 |
| 20260905094812 | 71 | 288 | 1.0 | 4.0 | 0.00 | 0.00 | 0.00 | 64 | 1025.4 |
| 20260905094607 | 71 | 255 | 1.0 | 4.0 | 0.00 | 0.00 | 0.00 | 64 | 1025.4 |
| 20260905094401 | 71 | 296 | 1.0 | 5.0 | 0.00 | 0.00 | 0.00 | 64 | 1025.4 |
| 20260905094156 | 71 | 300 | 0.0 | 5.0 | 0.00 | 0.00 | 0.00 | 66 | 1025.4 |
| 20260905093950 | 71 | 241 | 0.0 | 5.0 | 0.00 | 0.00 | 0.00 | 66 | 1025.5 |
| 20260905093742 | 70 | 238 | 0.0 | 5.0 | 0.00 | 0.00 | 0.00 | 67 | 1025.5 |
| 20260905093534 | 70 | 221 | 0.0 | 5.0 | 0.00 | 0.00 | 0.00 | 64 | 1025.4 |
| 20260905093003 | 70 | 294 | 1.0 | 5.0 | 0.00 | 0.00 | 0.00 | 62 | 1025.3 |
| 20260905092759 | 70 | 299 | 0.0 | 5.0 | 0.00 | 0.00 | 0.00 | 64 | 1025.3 |
| 20260905092555 | 70 | 254 | 0.0 | 5.0 | 0.00 | 0.00 | 0.00 | 62 | 1025.3 |
| 20260905092356 | 70 | 308 | 0.0 | 4.0 | 0.00 | 0.00 | 0.00 | 61 | 1025.3 |
| 20260905092149 | 71 | 296 | 0.0 | 3.0 | 0.00 | 0.00 | 0.00 | 63 | 1025.3 |
| 20260905091947 | 71 | 274 | 0.0 | 3.0 | 0.00 | 0.00 | 0.00 | 62 | 1025.2 |
| 20260905091739 | 70 | 314 | 0.0 | 3.0 | 0.00 | 0.00 | 0.00 | 65 | 1025.2 |
| 20260905091530 | 70 | 255 | 0.0 | 3.0 | 0.00 | 0.00 | 0.00 | 61 | 1025.2 |
| 20260905091323 | 70 | 229 | 0.0 | 4.0 | 0.00 | 0.00 | 0.00 | 63 | 1025.2 |
| 20260905091115 | 70 | 262 | 0.0 | 4.0 | 0.00 | 0.00 | 0.00 | 64 | 1025.3 |
| 20260905090908 | 70 | 242 | 0.0 | 4.0 | 0.00 | 0.00 | 0.00 | 63 | 1025.2 |
| 20260905090708 | 70 | 270 | 0.0 | 4.0 | 0.00 | 0.00 | 0.00 | 63 | 1025.2 |
| 20260905090508 | 70 | 239 | 0.0 | 4.0 | 0.00 | 0.00 | 0.00 | 62 | 1025.2 |
| 20260905090308 | 70 | 244 | 0.0 | 5.0 | 0.00 | 0.00 | 0.00 | 64 | 1025.3 |
| 20260905085738 | 69 | 303 | 0.0 | 5.0 | 0.00 | 0.00 | 0.00 | 65 | 1025.2 |
| 20260905085534 | 69 | 276 | 0.0 | 5.0 | 0.00 | 0.00 | 0.00 | 64 | 1025.1 |
| 20260905085332 | 69 | 291 | 0.0 | 5.0 | 0.00 | 0.00 | 0.00 | 62 | 1025.2 |
| 20260905085129 | 69 | 202 | 0.0 | 5.0 | 0.00 | 0.00 | 0.00 | 62 | 1025.1 |
| 20260905084928 | 69 | 263 | 0.0 | 5.0 | 0.00 | 0.00 | 0.00 | 64 | 1025.2 |
| 20260905084724 | 69 | 248 | 0.0 | 5.0 | 0.00 | 0.00 | 0.00 | 64 | 1025.1 |
| 20260905084520 | 69 | 241 | 0.0 | 5.0 | 0.00 | 0.00 | 0.00 | 62 | 1025.0 |
| 20260905084317 | 69 | 246 | 0.0 | 3.0 | 0.00 | 0.00 | 0.00 | 63 | 1025.0 |
| 20260905083749 | 69 | 304 | 0.0 | 2.0 | 0.00 | 0.00 | 0.00 | 66 | 1025.0 |